Weather Roundup
Issued by NWS Corpus Christi, TX

Home | Current Version | Previous Version | Text Only | Print | Product List | Glossary On
Versions: 1 2 3 4 5 6 7 8 9 10 11 12 13 14 15 16 17 18 19 20 21 22 23 24 25 26 27 28 29 30 31 32 33 34 35 36 37 38 39 40 41 42 43 44 45 46 47 48 49 50
000
ASUS44 KCRP 260210
HRRCRP

SOUTH TEXAS REGIONAL WEATHER ROUNDUP
NATIONAL WEATHER SERVICE CORPUS CHRISTI TX
900 PM CDT THU MAY 25 2017


TXZ229>244-260300-
...CORPUS CHRISTI AREA OBSERVATIONS...

CITY           SKY/WX    TMP DP  RH WIND       PRES   REMARKS
CORPUS CHRISTI PTCLDY    79  74  84 SE16      29.75R
NAS CORPUS CHR MOCLDY    81  75  82 S23G32    29.75R
ROCKPORT       CLOUDY    79  72  79 S12G24    29.75R
KINGSVILLE NAS MOCLDY    80  77  90 SE17G28   29.73R
ALICE          CLEAR     79  73  82 SE20G25   29.72R
ORANGE GROVE   PTCLDY    79  75  87 SE20G26   29.74R
FALFURRIAS     CLEAR     84  74  71 SE9G20    29.72R HX  91
$$

...VICTORIA AREA OBSERVATIONS...

CITY           SKY/WX    TMP DP  RH WIND       PRES   REMARKS
VICTORIA       CLEAR     77  70  79 S13       29.76R
BEEVILLE       FAIR      78  74  89 SE15      29.74R
PLEASANTON     CLEAR     82  70  67 SE10G20   29.71R
SAN ANTONIO    PTCLDY    82  69  64 SE16      29.71S
$$

...LAREDO AREA OBSERVATIONS...

CITY           SKY/WX    TMP DP  RH WIND       PRES   REMARKS
LAREDO         CLEAR     91  72  53 SE16      29.66R HX  98
COTULLA        CLEAR     93  64  38 SE14      29.65R HX  94
DEL RIO        CLEAR     88  66  48 SE9       29.63R HX  90
MCALLEN        MOCLDY    84  73  69 SE16G28   29.73R HX  90
HEBBRONVILLE   CLEAR     85  70  59 SE14G20   29.73R
$$

...OTHER TEXAS OBSERVATIONS...

CITY           SKY/WX    TMP DP  RH WIND       PRES   REMARKS
BROWNSVILLE    MOCLDY    81  75  82 SE15      29.76R
HOUSTON        PTCLDY    79  62  56 S15G23    29.77R
COL. STATION   CLEAR     79  58  48 S13       29.73R
AUSTIN         PTCLDY    82  69  64 S14       29.70R
WACO           PTCLDY    83  62  49 S15       29.65R
FORT WORTH     MOCLDY    85  61  44 S15       29.59R
WICHITA FALLS  PTCLDY    84  62  47 S14       29.48S
LUBBOCK        PTCLDY    91  24   9 SW17      29.62R
EL PASO        MOCLDY    89  21   8 W23G35    29.79R
$$

...MARINE OBSERVATIONS...

STATION/POSITION TIME  SKY/WX   TEMP    WIND        PRES    VSBY  WAVE   SWELL
                                AIR SEA DIR/SP/G                  HT/PER HT/PER
                 (UTC)          (F)     (DEG/KT/KT) (MB)    (MI)  (FT/S) (FT/S)
PORT ARANSAS     0100            78 80  140/ 22/ 25 1007.1R
BUOY 90 E PORT A 0050            79 78  140/ 16/ 19 1008.6          4/ 6
BUOY 45 SE BAFFI 0150            79     160/ 19/ 23 1006.9R         5/ 6
BUOY 200 E PT IS 0050            79 80  150/ 14/ 16 1010.0          3/ 4   2/27
BUOY 15 E GALVES 0050            78 79  180/ 16/ 19 1009.4          5/ 6
$$



USA.gov is the U.S. government's official web portal to all federal, state and local government web resources and services.